Flag for Romania Weather past 2 weeks in Brăila, Romania

Now
71 °F

Overcast.


Feels Like: 76 °F
Forecast: 54 / 62 °F
Wind: 3 mph from North

Location: Galati

Current Time: Oct 1, 2014 at 6:18:50 PM

Latest Report: Oct 1, 2014 at 5:00 PM


Visibility: 13 mi

Pressure: 30.25 "Hg

Humidity: 55%

Dew point: 54 °F

Location of BrăilaLocation

Historic Weather in Brăila — Graph

°F

Brăila temperature yesterday

Maximum temperature yesterday: 77 °F (at 5:00 PM)
Minimum temperature yesterday: 51 °F (at 8:00 AM)
Average temperature yesterday: 62 °F

Past Weeks' High & Low Weather Summary

 TemperatureHumidityPressure
High82 °F (Sep 22, 6:00 PM)98% (Sep 22, 3:00 AM)30.45 "Hg (Sep 22, 3:00 AM)
Low41 °F (Sep 25, 8:00 AM)18% (Sep 19, 6:00 PM)29.61 "Hg (Sep 22, 11:00 PM)
Average61 °F60%30.08 "Hg
* Reported Sep 16 5:00 PM — Oct 1 5:00 PM, Brăila, Weather by CustomWeather, © 2014

Note: Actual official high and low records may vary slightly from our data, if they occured in-between our weather recording intervals... More about our weather records

Advertising

Brăila weather history for previous 24 hours

 ConditionsComfort  
Time TempWeatherWind HumidityBarometerVisibility
5:00 PM
Oct 1
71 °FOvercast.3 mph55%30.25 "Hg12 mi
4:00 PM72 °FOvercast.3 mph54%30.25 "Hg12 mi
3:00 PM73 °FOvercast.3 mph52%30.25 "Hg12 mi
2:00 PM73 °FScattered clouds.3 mph51%30.26 "Hg12 mi
1:00 PM71 °FScattered clouds.2 mph52%30.26 "Hg12 mi
12:00 PM64 °FPartly sunny.1 mph62%30.26 "Hg12 mi
11:00 AM60 °FOvercast.1 mph67%30.26 "Hg12 mi
10:00 AM58 °FOvercast.1 mph69%30.25 "Hg12 mi
9:00 AM55 °FOvercast.No wind72%30.24 "Hg12 mi
8:00 AM53 °FPartly sunny.No wind80%30.23 "Hg12 mi
7:00 AM53 °FOvercast.No wind77%30.22 "Hg12 mi
6:00 AM53 °FPassing clouds.No wind74%30.22 "Hg12 mi
5:00 AM53 °FClear.No wind76%30.22 "Hg12 mi
4:00 AM53 °FClear.No wind72%30.22 "Hg12 mi
3:00 AM54 °FClear.No wind78%30.22 "Hg12 mi
2:00 AM59 °FClear.No wind65%30.22 "Hg12 mi
1:00 AM60 °FClear.No wind61%30.22 "Hg12 mi
12:00 AM61 °FClear.1 mph60%30.22 "Hg12 mi
11:00 PM
Sep 30
64 °FClear.1 mph48%30.21 "Hg12 mi
10:00 PM63 °FClear.1 mph47%30.21 "Hg12 mi
9:00 PM63 °FPassing clouds.1 mph48%30.20 "Hg12 mi
8:00 PM66 °FPassing clouds.1 mph44%30.19 "Hg12 mi
7:00 PM72 °FPassing clouds.1 mph30%30.18 "Hg12 mi
6:00 PM76 °FScattered clouds.1 mph38%30.17 "Hg12 mi
Weather by CustomWeather, © 2014

See weather overviewHow to use our weather pages